Skip Page Navigation
NASA JPL Caltech
NASA Logo - Jet Propulsion Laboratory + View the NASA Portal
+ Center for Near-Earth Object Studies
JPL Home Earth Solar System Stars & Galaxies Technology
JPL Solar System Dynamics
BODIES ORBITS EPHEMERIDES TOOLS PHYSICAL DATA DISCOVERY FAQ SITE MAP
IMPORTANT: The SSD Announcement email list is now available. Major changes are coming in the near future, including possible hostname and/or URL changes. To be notified of such changes, subscribe to this email list.

Please visit this page for more details.


JPL Small-Body Database Browser
Search: [ help ]  
461941 (2006 SA299)
Classification: Main-belt Asteroid          SPK-ID: 2461941
Ephemeris | Orbit Diagram | Orbital Elements | Mission Design | Physical Parameters | Discovery Circumstances ]

[ show orbit diagram ]
Orbital Elements at Epoch 2459000.5 (2020-May-31.0) TDB
Reference: JPL 13 (heliocentric ecliptic J2000)
 Element Value Uncertainty (1-sigma)   Units 
e .1431624503596363 1.1706e-07  
a 2.54526974536139 3.6144e-08 au
q 2.180882691789205 2.9567e-07 au
i 16.81756491231258 1.3762e-05 deg
node 193.1449733112711 3.3132e-05 deg
peri 192.4986169001615 6.2267e-05 deg
M 117.7538454867704 5.2738e-05 deg
tp 2458515.354790055751
(2019-Jan-31.85479006)
0.00021223 TDB
period 1483.198063366446
4.06
3.1593e-05
8.65e-08
d
yr
n .242718763522992 5.1701e-09 deg/d
Q 2.909656798933574 4.1318e-08 au
  Orbit Determination Parameters
   # obs. used (total)      63  
   data-arc span      4872 days (13.34 yr)  
   first obs. used      2006-09-26  
   last obs. used      2020-01-28  
   planetary ephem.      DE431  
   SB-pert. ephem.      SB431-N16  
   condition code      0  
   norm. resid. RMS      .56517  
   source      ORB  
   producer      Otto Matic  
   solution date      2020-Feb-26 12:44:17  

Additional Information
 Earth MOID = 1.18605 au 
 Jupiter MOID = 2.55168 au 
 T_jup = 3.370 
[ show covariance matrix ]

Ephemeris | Orbit Diagram | Orbital Elements | Mission Design | Physical Parameters | Discovery Circumstances ]

Physical Parameter Table
Parameter Symbol Value Units Sigma Reference Notes
absolute magnitude H 17.9   n/a MPO264956  

461941 (2006 SA299)          Discovered 2006-Sep-26 by Spacewatch at Kitt Peak
Reference: Last Updated: 2016-03-24
Ephemeris | Orbit Diagram | Orbital Elements | Mission Design | Physical Parameters | Discovery Circumstances ]
ABOUT SSD CREDITS/AWARDS PRIVACY/COPYRIGHT GLOSSARY LINKS
FirstGov 2020-Jun-01 14:22 UT
(server date/time)  
NASA Home Page
Site Manager:   Ryan S. Park
Webmaster  Alan B. Chamberlin